This is the latest recevied weather packets stored in our database for station/object KF6ILA. If no packets are shown the sender has not sent any weather packets the latest 10 day(s).
| Time | Temp. | Humidity | Pressure | Rain* | Wind** | Luminosity | Snow |
|---|---|---|---|---|---|---|---|
| 1787884254 | 26.11° C | 54% | 1015.7 hPa | 0 mm | - | 0 W/m² | - |
| 1787883957 | 26.11° C | 54% | 1015.6 hPa | 0 mm | - | 0 W/m² | - |
| 1787883363 | 26.67° C | 54% | 1015.5 hPa | 0 mm | - | 7 W/m² | - |
| 1787883066 | 26.67° C | 53% | 1015.5 hPa | 0 mm | - | 12 W/m² | - |
| 1787882769 | 27.22° C | 53% | 1015.5 hPa | 0 mm | - | 25 W/m² | - |
| 1787882472 | 27.22° C | 52% | 1015.5 hPa | 0 mm | - | 35 W/m² | - |
| 1787882175 | 27.22° C | 52% | 1015.5 hPa | 0 mm | - | 44 W/m² | - |
| 1787881878 | 27.78° C | 51% | 1015.6 hPa | 0 mm | - | 49 W/m² | - |
| 1787880987 | 27.78° C | 50% | 1015.5 hPa | 0 mm | - | 49 W/m² | - |
| 1787880096 | 28.89° C | 47% | 1015.5 hPa | 0 mm | - | 54 W/m² | - |
| 1787879502 | 29.44° C | 45% | 1015.6 hPa | 0 mm | - | 104 W/m² | - |
| 1787879205 | 30° C | 45% | 1015.5 hPa | 0 mm | - | 179 W/m² | - |
| 1787878908 | 30° C | 45% | 1015.4 hPa | 0 mm | - | 183 W/m² | - |
| 1787878611 | 30° C | 44% | 1015.5 hPa | 0 mm | - | 178 W/m² | - |
| 1787878314 | 30° C | 44% | 1015.5 hPa | 0 mm | - | 144 W/m² | - |
| 1787878017 | 30.56° C | 44% | 1015.5 hPa | 0 mm | - | 292 W/m² | - |
| 1787877720 | 30° C | 42% | 1015.5 hPa | 0 mm | - | 244 W/m² | - |
| 1787877423 | 30° C | 42% | 1015.5 hPa | 0 mm | - | 264 W/m² | - |
| 1787876532 | 30.56° C | 40% | 1015.4 hPa | 0 mm | - | 193 W/m² | - |
| 1787876235 | 30.56° C | 40% | 1015.4 hPa | 0 mm | - | 183 W/m² | - |
| 1787875641 | 31.67° C | 40% | 1015.4 hPa | 0 mm | - | 415 W/m² | - |
| 1787875344 | 31.67° C | 40% | 1015.3 hPa | 0 mm | - | 403 W/m² | - |
| 1787874750 | 31.11° C | 41% | 1015.5 hPa | 0 mm | - | 504 W/m² | - |
| 1787874453 | 31.67° C | 41% | 1015.4 hPa | 0 mm | - | 401 W/m² | - |
| 1787873859 | 32.22° C | 42% | 1015.5 hPa | 0 mm | - | 568 W/m² | - |
* Rain latest hour (hover to see other rain measurements)
** Current wind speed in m/s (hover to see current wind gust speed)